Regional Weather Roundup
Issued by NWS Newport/Morehead, NC

Current Version | Previous Version | Graphics & Text | Print | Product List | Glossary On
Versions: 1 2 3 4 5 6 7 8 9 10 11 12 13 14 15 16 17 18 19 20 21 22 23 24 25 26 27 28 29 30 31 32 33 34 35 36 37 38 39 40 41 42 43 44 45 46 47 48 49 50
000 ASUS42 KMHX 011624 RWRMHX WEATHER ROUNDUP FOR EASTERN NORTH CAROLINA NATIONAL WEATHER SERVICE NEWPORT/MOREHEAD CITY NC 1100 AM EST SUN MAR 01 2015 NOTE: "FAIR" INDICATES FEW OR NO CLOUDS BELOW 12,000 FEET WITH NO SIGNIFICANT WEATHER AND/OR OBSTRUCTIONS TO VISIBILITY NCZ015>017-031-032-045>047-102-103-011700- NORTH COAST CITY SKY/WX TMP DP RH WIND PRES REMARKS EDENTON LGT RAIN 36 34 93 N3 30.56F ELIZABETH CITY LGT RAIN 38 35 89 N6 30.58S KITTY HAWK DRIZZLE 46 46 99 CALM 30.55S MANTEO CLOUDY 46 45 93 CALM 30.56F $$ NCZ045>047-081-094-103-104-011700- CENTRAL COAST CITY SKY/WX TMP DP RH WIND PRES REMARKS FRISCO PTSUNNY 54 46 74 SE12 30.53F SWANQUARTER N/A 48 N/A N/A N6G12 30.50S $$ NCZ095-097-098-100-101-011700- SOUTHERN COAST CITY SKY/WX TMP DP RH WIND PRES REMARKS BEAUFORT PTSUNNY 59 48 67 E6 30.51F CEDAR ISLAND N/A 41 N/A N/A NW3 30.56S JACKSONVILLE CLOUDY 49 38 65 N7 30.51F PINEY ISLAND N/A N/A N/A N/A MISG 30.53F WILMINGTON CLOUDY 54 43 66 NE6 30.48F $$ NCZ011>013-027>030-043-044-078>080-089-090>093-098-011700- COASTAL PLAIN CITY SKY/WX TMP DP RH WIND PRES REMARKS AHOSKIE LGT SNOW 31 30 93 N3 30.58F CLINTON RAIN 35 34 94 NE5 30.52F ELIZABETHTOWN PTSUNNY 38 36 91 N3 30.50F GOLDSBORO CLOUDY 34 34 100 N9 30.53F GREENVILLE CLOUDY 34 32 93 N7 30.55F HAVELOCK CLOUDY 49 39 68 N12 30.53F KENANSVILLE CLOUDY 37 32 81 N7 30.53F KINSTON CLOUDY 36 34 93 NE8 30.55F NEW BERN CLOUDY 43 36 76 N6 30.54F RICHLANDS CLOUDY 46 36 66 N5 30.51F ROCKY MOUNT CLOUDY 32 30 92 N8 30.57F FOG WASHINGTON PTSUNNY 38 36 92 N7 30.54F WHITEVILLE CLOUDY 42 35 75 CALM 30.50F $$ AMZ130-135-150-152-154-156-158-170-250-252-270-ANZ085-086-088-633-658-670-011700- MARINE OBSERVATIONS STATION/POSITION TIME TEMP WIND PRES WAVE SWELL AIR SEA DIR/SP/G HT/PER HT/PER (UTC) (F) (DEG/KT/KT) (MB) (FT/S) (FT/S) CHESAPEAKE LIGHT 1600 35 20/ 16/ 17 1035.1 64 E VA BEACH 1550 57 62 150/ 19/ 23 1033.6 4/10 2/10 DUCK 1600 38 34 320/ 8/ 9 1034.2 2 E DUCK 1511 34 N/A 3/ 9 10 NE DUCK 1522 36 N/A 3/ 9 OREGON INLET 1600 49 38 150/ 7/ 10 1034.4 HATTERAS CG 1600 50 39 140/ 8/ 14 1034.1 CAPE LOOKOUT 1600 55 90/ 6/ 8 1032.7 BEAUFORT LAB 1600 58 41 80/ 6/ 8 1032.1 27 SE WRIGHTSVLE NOT AVBL 5 SE WRIGHTSVLE NOT AVBL 225 S CAPE HAT 1550 68 72 100/ 17/ 21 1033.1 9/ 9 5/ 9 41 SE CHARLESTON 1550 70 68 140/ 17/ 21 1030.1 8/ 8 3/ 9 $$

USA.gov is the U.S. government's official web portal to all federal, state and local government web resources and services.